YAOGAN-29

Last updated on Sun Apr 12 2026 00:02:18 GMT+0000 (Coordinated Universal Time)

1 41038U 15069A 26101.51806562 .00000975 00000+0 12655-3 0 9992 2 41038 98.0101 130.0294 0000674 159.7989 200.3251 14.83035014560745
UTC large
Height (km)
Speed (km/s)
/
Latitude / Longitude
Inclination (degrees)
Orbital Period (minutes)
Azimuth
Elevation
Range (km)
Doppler Factor

Next 0 passes for location: London (51.5072 / 0.1276)

Sorry there are no passes over London.
YAOGAN-29